EN

Hourly Weather Paramirim

Today, 3 March, Wednesday

Time Temperature Precipitation Wind Pressure Humidity
00:00 +21°C° 0 mm 2 mps 708 mmHg 82%
01:00 +21°C° 0 mm 2 mps 708 mmHg 84%
02:00 +20°C° 0 mm 2 mps 708 mmHg 86%
03:00 +19°C° 0 mm 2 mps 707 mmHg 88%
04:00 +19°C° 0 mm 2 mps 707 mmHg 90%
05:00 +19°C° 0 mm 2 mps 708 mmHg 91%
06:00 +18°C° 0 mm 2 mps 708 mmHg 92%
07:00 +21°C° 0 mm 2 mps 708 mmHg 83%
08:00 +24°C° 0 mm 2 mps 709 mmHg 73%
09:00 +26°C° 0 mm 3 mps 710 mmHg 64%
10:00 +28°C° 0 mm 2 mps 710 mmHg 58%
11:00 +30°C° 0 mm 2 mps 710 mmHg 51%
12:00 +32°C° 0 mm 2 mps 710 mmHg 44%
13:00 +32°C° 0 mm 2 mps 709 mmHg 43%
14:00 +32°C° 0 mm 2 mps 708 mmHg 42%
15:00 +34°C° 0 mm 3 mps 708 mmHg 40%
16:00 +31°C° 0 mm 3 mps 707 mmHg 49%
17:00 +29°C° 0 mm 3 mps 707 mmHg 57%
18:00 +27°C° 0 mm 3 mps 706 mmHg 66%
19:00 +26°C° 0 mm 3 mps 707 mmHg 68%
20:00 +25°C° 0 mm 2 mps 707 mmHg 70%
21:00 +24°C° 0 mm 2 mps 708 mmHg 72%
22:00 +23°C° 0 mm 2 mps 708 mmHg 73%
23:00 +23°C° 0 mm 2 mps 708 mmHg 75%

Tomorrow, 4 March, Thursday

Time Temperature Precipitation Wind Pressure Humidity
00:00 +21°C° 0 mm 2 mps 708 mmHg 77%
01:00 +20°C° 0 mm 2 mps 708 mmHg 79%
02:00 +20°C° 0 mm 2 mps 708 mmHg 81%
03:00 +20°C° 0 mm 1 mps 707 mmHg 82%
04:00 +19°C° 0 mm 2 mps 707 mmHg 84%
05:00 +18°C° 0 mm 2 mps 707 mmHg 85%
06:00 +18°C° 0 mm 2 mps 708 mmHg 86%
07:00 +20°C° 0 mm 2 mps 708 mmHg 75%
08:00 +24°C° 0 mm 2 mps 709 mmHg 65%
09:00 +27°C° 0 mm 2 mps 710 mmHg 54%
10:00 +28°C° 0 mm 2 mps 710 mmHg 49%
11:00 +30°C° 0 mm 2 mps 709 mmHg 43%
12:00 +32°C° 0 mm 2 mps 709 mmHg 38%
13:00 +32°C° 0 mm 2 mps 708 mmHg 37%
14:00 +32°C° 0 mm 2 mps 708 mmHg 36%
15:00 +32°C° 0 mm 2 mps 707 mmHg 35%
16:00 +31°C° 0 mm 2 mps 706 mmHg 42%
17:00 +29°C° 0 mm 2 mps 706 mmHg 48%
18:00 +27°C° 0 mm 2 mps 705 mmHg 54%
19:00 +26°C° 0 mm 2 mps 706 mmHg 56%
20:00 +25°C° 0 mm 1 mps 706 mmHg 59%
21:00 +24°C° 0 mm 1 mps 707 mmHg 62%
22:00 +23°C° 0 mm 1 mps 707 mmHg 64%
23:00 +23°C° 0 mm 1 mps 707 mmHg 65%

Day after tomorrow, 5 March, Friday

Time Temperature Precipitation Wind Pressure Humidity
00:00 +22°C° 0 mm 1 mps 707 mmHg 67%
01:00 +22°C° 0 mm 1 mps 707 mmHg 73%
02:00 +21°C° 0 mm 1 mps 706 mmHg 78%
03:00 +21°C° 0 mm 1 mps 706 mmHg 83%
04:00 +21°C° 0 mm 1 mps 706 mmHg 86%
05:00 +20°C° 0 mm 1 mps 706 mmHg 89%
06:00 +20°C° 0 mm 1 mps 706 mmHg 92%
07:00 +23°C° 0 mm 1 mps 707 mmHg 84%
08:00 +25°C° 0 mm 1 mps 708 mmHg 75%
09:00 +27°C° 0 mm 1 mps 708 mmHg 67%
10:00 +29°C° 0 mm 1 mps 708 mmHg 60%
11:00 +32°C° 0 mm 1 mps 708 mmHg 52%
12:00 +34°C° 0 mm 1 mps 708 mmHg 45%
13:00 +34°C° 0 mm 1 mps 707 mmHg 44%
14:00 +34°C° 0 mm 1 mps 706 mmHg 43%
15:00 +34°C° 0 mm 1 mps 705 mmHg 42%
16:00 +32°C° 0 mm 1 mps 705 mmHg 48%
17:00 +30°C° 0 mm 1 mps 705 mmHg 54%
18:00 +29°C° 0 mm 1 mps 704 mmHg 60%
19:00 +28°C° 0 mm 1 mps 705 mmHg 62%
20:00 +27°C° 0 mm 1 mps 705 mmHg 64%
21:00 +26°C° 0 mm 1 mps 706 mmHg 65%
22:00 +25°C° 0 mm 1 mps 706 mmHg 67%
23:00 +25°C° 0 mm 1 mps 706 mmHg 69%

6 March, Saturday

Time Temperature Precipitation Wind Pressure Humidity
00:00 +22°C° 0 mm 0 mps 706 mmHg 70%
01:00 +22°C° 0 mm 0 mps 706 mmHg 71%
02:00 +22°C° 0 mm 0 mps 706 mmHg 73%
03:00 +21°C° 0 mm 0 mps 706 mmHg 74%
04:00 +21°C° 0 mm 0 mps 706 mmHg 76%
05:00 +22°C° 0 mm 1 mps 706 mmHg 78%
06:00 +22°C° 0 mm 1 mps 706 mmHg 79%
07:00 +24°C° 0 mm 1 mps 707 mmHg 72%
08:00 +27°C° 0 mm 1 mps 708 mmHg 64%
09:00 +30°C° 0 mm 1 mps 708 mmHg 57%
10:00 +31°C° 0 mm 1 mps 708 mmHg 51%
11:00 +33°C° 0 mm 1 mps 708 mmHg 46%
12:00 +35°C° 0 mm 1 mps 708 mmHg 40%
13:00 +35°C° 0 mm 1 mps 707 mmHg 39%
14:00 +35°C° 0 mm 1 mps 706 mmHg 37%
15:00 +35°C° 0 mm 1 mps 705 mmHg 35%
16:00 +33°C° 0 mm 1 mps 705 mmHg 41%
17:00 +31°C° 0 mm 1 mps 705 mmHg 46%
18:00 +30°C° 0 mm 1 mps 704 mmHg 52%
19:00 +29°C° 0 mm 1 mps 705 mmHg 55%
20:00 +28°C° 0 mm 1 mps 705 mmHg 59%
21:00 +27°C° 0 mm 1 mps 706 mmHg 62%
22:00 +26°C° 0 mm 1 mps 706 mmHg 63%
23:00 +24°C° 0 mm 0 mps 706 mmHg 64%

7 March, Sunday

Time Temperature Precipitation Wind Pressure Humidity
00:00 +24°C° 0 mm 0 mps 706 mmHg 64%
01:00 +23°C° 0 mm 0 mps 706 mmHg 66%
02:00 +22°C° 0 mm 0 mps 706 mmHg 68%
03:00 +22°C° 0 mm 0 mps 706 mmHg 70%
04:00 +22°C° 0 mm 0 mps 706 mmHg 71%
05:00 +21°C° 0 mm 0 mps 706 mmHg 73%
06:00 +21°C° 0 mm 0 mps 706 mmHg 74%
07:00 +24°C° 0 mm 0 mps 707 mmHg 66%
08:00 +26°C° 0 mm 0 mps 708 mmHg 59%
09:00 +31°C° 0 mm 1 mps 709 mmHg 51%
10:00 +32°C° 0 mm 1 mps 708 mmHg 47%
11:00 +34°C° 0 mm 1 mps 708 mmHg 42%
12:00 +35°C° 0 mm 1 mps 708 mmHg 38%
13:00 +35°C° 0 mm 1 mps 707 mmHg 37%
14:00 +35°C° 0 mm 1 mps 706 mmHg 36%
15:00 +35°C° 0 mm 1 mps 705 mmHg 35%
16:00 +33°C° 0 mm 1 mps 705 mmHg 41%
17:00 +32°C° 0 mm 1 mps 705 mmHg 46%
18:00 +30°C° 0 mm 1 mps 705 mmHg 51%
19:00 +30°C° 0 mm 1 mps 705 mmHg 53%
20:00 +29°C° 0 mm 1 mps 706 mmHg 54%
21:00 +29°C° 0 mm 1 mps 706 mmHg 56%
22:00 +28°C° 0 mm 1 mps 706 mmHg 57%
23:00 +28°C° 0 mm 1 mps 707 mmHg 58%

8 March, Monday

Time Temperature Precipitation Wind Pressure Humidity
00:00 +27°C° 0 mm 1 mps 707 mmHg 58%
01:00 +26°C° 0 mm 1 mps 707 mmHg 60%
02:00 +24°C° 0 mm 0 mps 706 mmHg 62%
03:00 +23°C° 0 mm 0 mps 706 mmHg 63%
04:00 +23°C° 0 mm 0 mps 706 mmHg 64%
05:00 +22°C° 0 mm 0 mps 706 mmHg 65%
06:00 +22°C° 0 mm 0 mps 707 mmHg 66%
07:00 +24°C° 0 mm 0 mps 707 mmHg 60%
08:00 +29°C° 0 mm 1 mps 708 mmHg 54%
09:00 +31°C° 0 mm 1 mps 709 mmHg 47%
10:00 +32°C° 0 mm 1 mps 708 mmHg 43%
11:00 +34°C° 0 mm 1 mps 708 mmHg 39%
12:00 +36°C° 0 mm 1 mps 708 mmHg 35%
13:00 +35°C° 0 mm 1 mps 707 mmHg 36%
14:00 +35°C° 0 mm 1 mps 706 mmHg 36%
15:00 +34°C° 0 mm 1 mps 705 mmHg 37%
16:00 +33°C° 0 mm 1 mps 705 mmHg 42%
17:00 +31°C° 0 mm 1 mps 705 mmHg 47%
18:00 +30°C° 0 mm 1 mps 704 mmHg 52%
19:00 +29°C° 0 mm 1 mps 705 mmHg 55%
20:00 +27°C° 0 mm 1 mps 705 mmHg 57%
21:00 +26°C° 0 mm 1 mps 706 mmHg 59%
22:00 +26°C° 0 mm 1 mps 706 mmHg 60%
23:00 +26°C° 0 mm 1 mps 706 mmHg 61%
Show more

We Need Your Consent

Meteoprog and our Service Providers may store and access personal data such as cookies, device identifiers or other similar technologies on your device and process such data to personalise content and ads, as well as provide social media features and to analyse the traffic.

  • Store and/or access information on your device

    Cookies, device identifiers or other information can be stored or accessed on your device for the purposes indicated above.

  • Personalised ads and content, ad and content measurement, audience insights, and products development

    Ads and content can be personalised based on a profile. More data can be added to better personalise ads and content. Ad and content performance can be measured. Insights about the audience who saw the ads and content can be derived. Such data can be used to develop or improve user’s experience, systems and software.

By clicking ‘I Agree’ you will allow the use of indicated cookies, device identifiers, web beacons or other similar technologies. Your settings can be changed in the browser on your device.

For certain purposes, legitimate interests may be relied on, rather than consent. You can read more about this in our Privacy and Cookie Policy.